,,,PA_Meas_PMT16A,,PR_Meas_QMR101_102,,RH_Meas_QMH101,,SR_Meas_QMS101,,TA_Meas_QMH101,,GenWind,,GenWind,
date,time,status,PA,status,PR,status,RH,status,SR,status,TA,status,DirAvg,status,SpdAvg,
2014-12-07, 00:00:04,VALID,1010.65,VALID,0,VALID,97.4495,VALID,0.112112,VALID,24.4345,VALID,79,VALID,0,
2014-12-07, 00:01:04,VALID,1010.64,VALID,0,VALID,97.2741,VALID,0.112112,VALID,24.4132,VALID,79,VALID,0,
2014-12-07, 00:02:04,VALID,1010.63,VALID,0,VALID,96.7708,VALID,0.112112,VALID,24.4345,VALID,79,VALID,0,
2014-12-07, 00:03:04,VALID,1010.63,VALID,0,VALID,96.7632,VALID,0.112112,VALID,24.4345,VALID,79,VALID,0,
2014-12-07, 00:04:04,VALID,1010.62,VALID,0,VALID,96.7403,VALID,0.112112,VALID,24.415,VALID,79,VALID,0,
2014-12-07, 00:05:04,VALID,1010.63,VALID,0,VALID,96.4963,VALID,0.112112,VALID,24.415,VALID,79,VALID,0,
2014-12-07, 00:06:04,VALID,1010.62,VALID,0,VALID,96.176,VALID,0,VALID,24.3956,VALID,79,VALID,0,
2014-12-07, 00:07:04,VALID,1010.6,VALID,0,VALID,96.1608,VALID,0,VALID,24.415,VALID,79,VALID,0,
2014-12-07, 00:08:04,VALID,1010.6,VALID,0,VALID,96.8166,VALID,0,VALID,24.3937,VALID,79,VALID,0,
2014-12-07, 00:09:04,VALID,1010.61,VALID,0,VALID,96.9767,VALID,0,VALID,24.3742,VALID,79,VALID,0,
2014-12-07, 00:10:04,VALID,1010.56,VALID,0,VALID,96.6335,VALID,0,VALID,24.3742,VALID,79,VALID,0,
2014-12-07, 00:11:04,VALID,1010.53,VALID,0,VALID,97.3046,VALID,0,VALID,24.3956,VALID,79,VALID,0,
2014-12-07, 00:12:04,VALID,1010.54,VALID,0,VALID,97.8613,VALID,0.112112,VALID,24.3742,VALID,79,VALID,0,
2014-12-07, 00:13:04,VALID,1010.51,VALID,0,VALID,98.0291,VALID,0,VALID,24.3761,VALID,79,VALID,0,
2014-12-07, 00:14:04,VALID,1010.48,VALID,0,VALID,98.3036,VALID,0.112112,VALID,24.3566,VALID,79,VALID,0,
2014-12-07, 00:15:04,VALID,1010.44,VALID,0,VALID,99.1882,VALID,0,VALID,24.3352,VALID,79,VALID,0,
2014-12-07, 00:16:04,VALID,1010.41,VALID,0,VALID,100.248,VALID,0,VALID,24.3371,VALID,79,VALID,0,
2014-12-07, 00:17:04,VALID,1010.43,VALID,0,VALID,101.24,VALID,0,VALID,24.3371,VALID,79,VALID,0,
2014-12-07, 00:18:04,VALID,1010.42,VALID,0,VALID,101.621,VALID,0.112112,VALID,24.2768,VALID,79,VALID,0,
2014-12-07, 00:19:04,VALID,1010.4,VALID,0,VALID,102.406,VALID,0.112112,VALID,24.2573,VALID,79,VALID,0,
2014-12-07, 00:20:04,VALID,1010.41,VALID,0,VALID,102.948,VALID,0.112112,VALID,24.2573,VALID,79,VALID,0,
2014-12-07, 00:21:04,VALID,1010.41,VALID,0,VALID,103.367,VALID,0.112112,VALID,24.2378,VALID,79,VALID,0,
2014-12-07, 00:22:04,VALID,1010.38,VALID,0,VALID,103.68,VALID,0.112112,VALID,24.2183,VALID,79,VALID,0,
2014-12-07, 00:23:04,VALID,1010.36,VALID,0,VALID,103.886,VALID,0,VALID,24.2183,VALID,79,VALID,0,
2014-12-07, 00:24:04,VALID,1010.33,VALID,0,VALID,103.764,VALID,0,VALID,24.2202,VALID,79,VALID,0,
2014-12-07, 00:25:04,VALID,1010.3,VALID,0,VALID,103.603,VALID,0.112112,VALID,24.2202,VALID,79,VALID,0,
2014-12-07, 00:26:04,VALID,1010.31,VALID,0,VALID,103.489,VALID,0.112112,VALID,24.1988,VALID,79,VALID,0,
2014-12-07, 00:27:04,VALID,1010.29,VALID,0,VALID,103.603,VALID,0,VALID,24.1988,VALID,79,VALID,0,
2014-12-07, 00:28:04,VALID,1010.29,VALID,0,VALID,103.802,VALID,0.112112,VALID,24.1793,VALID,79,VALID,0,
2014-12-07, 00:29:04,VALID,1010.27,VALID,0,VALID,104,VALID,0.112112,VALID,24.2007,VALID,79,VALID,0,
2014-12-07, 00:30:04,VALID,1010.25,VALID,0,VALID,104,VALID,0,VALID,24.2007,VALID,79,VALID,0,
2014-12-07, 00:31:04,VALID,1010.27,VALID,0,VALID,104,VALID,0.112112,VALID,24.1793,VALID,79,VALID,0,
2014-12-07, 00:32:04,VALID,1010.24,VALID,0,VALID,104,VALID,0.112112,VALID,24.1793,VALID,79,VALID,0,
2014-12-07, 00:33:04,VALID,1010.23,VALID,0,VALID,104,VALID,0.112112,VALID,24.1793,VALID,79,VALID,0,
2014-12-07, 00:34:04,VALID,1010.23,VALID,0,VALID,104,VALID,0.112112,VALID,24.1793,VALID,79,VALID,0,
2014-12-07, 00:35:04,VALID,1010.22,VALID,0,INVALID,109.361,VALID,0.112112,VALID,24.1793,VALID,79,VALID,0,
2014-12-07, 00:36:04,VALID,1010.22,VALID,0,INVALID,109.933,VALID,0.112112,VALID,24.1599,VALID,79,VALID,0,
2014-12-07, 00:37:04,VALID,1010.21,VALID,0,INVALID,110.329,VALID,0.112112,VALID,24.1404,VALID,79,VALID,0,
2014-12-07, 00:38:04,VALID,1010.22,VALID,0,INVALID,110.131,VALID,0.112112,VALID,24.1209,VALID,79,VALID,0,
2014-12-07, 00:39:04,VALID,1010.2,VALID,0,INVALID,110.07,VALID,0,VALID,24.1209,VALID,79,VALID,0,
2014-12-07, 00:40:04,VALID,1010.2,VALID,0,INVALID,110.505,VALID,0.112112,VALID,24.1209,VALID,79,VALID,0,
2014-12-07, 00:41:04,VALID,1010.2,VALID,0,INVALID,110.772,VALID,0.112112,VALID,24.1422,VALID,79,VALID,0,
2014-12-07, 00:42:04,VALID,1010.21,VALID,0,INVALID,110.627,VALID,0,VALID,24.1014,VALID,79,VALID,0,
2014-12-07, 00:43:04,VALID,1010.2,VALID,0,INVALID,110.566,VALID,0.112112,VALID,24.1014,VALID,79,VALID,0,
2014-12-07, 00:44:04,VALID,1010.19,VALID,0,INVALID,110.741,VALID,0,VALID,24.1227,VALID,79,VALID,0,
2014-12-07, 00:45:04,VALID,1010.15,VALID,0,INVALID,110.551,VALID,0,VALID,24.1245,VALID,79,VALID,0,
2014-12-07, 00:46:04,VALID,1010.15,VALID,0,INVALID,110.581,VALID,0,VALID,24.0837,VALID,79,VALID,0,
2014-12-07, 00:47:04,VALID,1010.14,VALID,0,INVALID,111.016,VALID,0,VALID,24.1032,VALID,79,VALID,0,
2014-12-07, 00:48:04,VALID,1010.13,VALID,0,INVALID,111.161,VALID,0,VALID,24.1032,VALID,79,VALID,0,
2014-12-07, 00:49:04,VALID,1010.11,VALID,0,INVALID,111.694,VALID,0,VALID,24.1032,VALID,79,VALID,0,
2014-12-07, 00:50:04,VALID,1010.11,VALID,0,INVALID,111.946,VALID,0,VALID,24.1227,VALID,79,VALID,0,
2014-12-07, 00:51:04,VALID,1010.11,VALID,0,INVALID,112.022,VALID,0,VALID,24.1422,VALID,79,VALID,0,
2014-12-07, 00:52:04,VALID,1010.11,VALID,0,INVALID,110.939,VALID,0,VALID,24.1227,VALID,79,VALID,0,
2014-12-07, 00:53:04,VALID,1010.12,VALID,0,INVALID,109.849,VALID,0,VALID,24.1422,VALID,79,VALID,0,
2014-12-07, 00:54:04,VALID,1010.1,VALID,0,VALID,104,VALID,0,VALID,24.144,VALID,79,VALID,0,
2014-12-07, 00:55:04,VALID,1010.09,VALID,0,VALID,104,VALID,0,VALID,24.144,VALID,79,VALID,0,
2014-12-07, 00:56:04,VALID,1010.1,VALID,0,VALID,104,VALID,0,VALID,24.1227,VALID,79,VALID,0,
2014-12-07, 00:57:04,VALID,1010.1,VALID,0,VALID,104,VALID,0,VALID,24.1422,VALID,79,VALID,0,
2014-12-07, 00:58:04,VALID,1010.11,VALID,0,VALID,104,VALID,0,VALID,24.1422,VALID,79,VALID,0,
2014-12-07, 00:59:04,VALID,1010.11,VALID,0,VALID,104,VALID,0,VALID,24.1227,VALID,79,VALID,0,
2014-12-07, 01:00:04,VALID,1010.14,VALID,0,VALID,104,VALID,0.112112,VALID,24.1617,VALID,79,VALID,0,
2014-12-07, 01:01:04,VALID,1010.14,VALID,0,VALID,104,VALID,0.112112,VALID,24.1422,VALID,79,VALID,0,
2014-12-07, 01:02:04,VALID,1010.15,VALID,0,VALID,104,VALID,0.112112,VALID,24.1209,VALID,79,VALID,0,
2014-12-07, 01:03:04,VALID,1010.12,VALID,0,VALID,104,VALID,0.112112,VALID,24.1404,VALID,79,VALID,0,
2014-12-07, 01:04:04,VALID,1010.13,VALID,0,INVALID,109.788,VALID,0.112112,VALID,24.1617,VALID,79,VALID,0,
2014-12-07, 01:05:04,VALID,1010.12,VALID,0,INVALID,110.734,VALID,0.112112,VALID,24.1404,VALID,79,VALID,0,
2014-12-07, 01:06:04,VALID,1010.11,VALID,0,INVALID,110.917,VALID,0.112112,VALID,24.1404,VALID,79,VALID,0,
2014-12-07, 01:07:04,VALID,1010.1,VALID,0,INVALID,111.206,VALID,0.112112,VALID,24.1617,VALID,79,VALID,0,
2014-12-07, 01:08:04,VALID,1010.12,VALID,0,INVALID,111.656,VALID,0.112112,VALID,24.1422,VALID,79,VALID,0,
2014-12-07, 01:09:04,VALID,1010.11,VALID,0,INVALID,112.114,VALID,0.112112,VALID,24.1404,VALID,79,VALID,0,
2014-12-07, 01:10:04,VALID,1010.08,VALID,0,INVALID,112.289,VALID,0.112112,VALID,24.1404,VALID,79,VALID,0,
2014-12-07, 01:11:04,VALID,1010.02,VALID,0,INVALID,112.182,VALID,0.112112,VALID,24.1404,VALID,79,VALID,0,
2014-12-07, 01:12:04,VALID,1010.03,VALID,0,INVALID,112.274,VALID,0.112112,VALID,24.1404,VALID,79,VALID,0,
2014-12-07, 01:13:04,VALID,1010.01,VALID,0,INVALID,112.678,VALID,0.112112,VALID,24.1191,VALID,79,VALID,0,
2014-12-07, 01:14:04,VALID,1010.01,VALID,0,INVALID,113.09,VALID,0.112112,VALID,24.1617,VALID,79,VALID,0,
2014-12-07, 01:15:04,VALID,1010,VALID,0,INVALID,113.326,VALID,0.112112,VALID,24.1617,VALID,79,VALID,0,
2014-12-07, 01:16:04,VALID,1009.99,VALID,0,INVALID,113.189,VALID,0.112112,VALID,24.1617,VALID,79,VALID,0,
2014-12-07, 01:17:04,VALID,1009.97,VALID,0,INVALID,112.998,VALID,0.112112,VALID,24.1014,VALID,79,VALID,0,
2014-12-07, 01:18:04,VALID,1009.98,VALID,0,INVALID,113.303,VALID,0.112112,VALID,24.1014,VALID,79,VALID,0,
2014-12-07, 01:19:04,VALID,1009.98,VALID,0,INVALID,113.326,VALID,0.112112,VALID,24.1014,VALID,79,VALID,0,
2014-12-07, 01:20:04,VALID,1009.99,VALID,0,INVALID,112.671,VALID,0.112112,VALID,24.1032,VALID,79,VALID,0,
2014-12-07, 01:21:04,VALID,1010,VALID,0,INVALID,111.717,VALID,0.112112,VALID,24.1032,VALID,79,VALID,0,
2014-12-07, 01:22:04,VALID,1010,VALID,0,INVALID,110.642,VALID,0.112112,VALID,24.1014,VALID,79,VALID,0,
2014-12-07, 01:23:04,VALID,1010.01,VALID,0,INVALID,109.826,VALID,0.112112,VALID,24.1014,VALID,79,VALID,0,
2014-12-07, 01:24:04,VALID,1010,VALID,0,VALID,104,VALID,0.112112,VALID,24.1032,VALID,89,VALID,0,
2014-12-07, 01:25:04,VALID,1010.02,VALID,0,VALID,104,VALID,0.112112,VALID,24.1032,VALID,89,VALID,0,
2014-12-07, 01:26:04,VALID,1010,VALID,0,VALID,104,VALID,0.112112,VALID,24.0819,VALID,89,VALID,0,
2014-12-07, 01:27:04,VALID,1009.97,VALID,0,VALID,104,VALID,0.112112,VALID,24.0819,VALID,89,VALID,0,
2014-12-07, 01:28:04,VALID,1009.94,VALID,0,VALID,104,VALID,0.112112,VALID,24.0819,VALID,89,VALID,0,
2014-12-07, 01:29:04,VALID,1009.9,VALID,0,VALID,104,VALID,0.112112,VALID,24.0819,VALID,89,VALID,0,
2014-12-07, 01:30:04,VALID,1009.89,VALID,0,VALID,104,VALID,0.112112,VALID,24.0819,VALID,89,VALID,0,
2014-12-07, 01:31:04,VALID,1009.86,VALID,0,VALID,104,VALID,0.112112,VALID,24.0837,VALID,89,VALID,0,
2014-12-07, 01:32:04,VALID,1009.83,VALID,0,VALID,104,VALID,0.112112,VALID,24.0624,VALID,89,VALID,0,
2014-12-07, 01:33:04,VALID,1009.81,VALID,0,VALID,104,VALID,0.112112,VALID,24.0624,VALID,89,VALID,0,
2014-12-07, 01:34:04,VALID,1009.8,VALID,0,VALID,104,VALID,0.112112,VALID,24.0837,VALID,89,VALID,0,
2014-12-07, 01:35:04,VALID,1009.8,VALID,0,VALID,104,VALID,0.112112,VALID,24.0429,VALID,89,VALID,0,
2014-12-07, 01:36:04,VALID,1009.78,VALID,0,VALID,104,VALID,0.112112,VALID,24.0235,VALID,89,VALID,0,
2014-12-07, 01:37:04,VALID,1009.8,VALID,0,VALID,104,VALID,0.112112,VALID,24.0429,VALID,89,VALID,0,
2014-12-07, 01:38:04,VALID,1009.79,VALID,0,VALID,104,VALID,0.112112,VALID,24.0235,VALID,89,VALID,0,
2014-12-07, 01:39:04,VALID,1009.82,VALID,0,VALID,104,VALID,0.112112,VALID,24.0235,VALID,89,VALID,0,
2014-12-07, 01:40:04,VALID,1009.8,VALID,0,VALID,104,VALID,0.112112,VALID,24.004,VALID,89,VALID,0,
2014-12-07, 01:41:04,VALID,1009.79,VALID,0,VALID,104,VALID,0.112112,VALID,23.9845,VALID,89,VALID,0,
2014-12-07, 01:42:04,VALID,1009.73,VALID,0,INVALID,109.033,VALID,0.112112,VALID,24.004,VALID,89,VALID,0,
2014-12-07, 01:43:04,VALID,1009.74,VALID,0,INVALID,109.529,VALID,0.112112,VALID,23.965,VALID,89,VALID,0,
2014-12-07, 01:44:04,VALID,1009.72,VALID,0,INVALID,110.421,VALID,0.112112,VALID,23.9845,VALID,89,VALID,0,
2014-12-07, 01:45:04,VALID,1009.7,VALID,0,INVALID,111.336,VALID,0.112112,VALID,23.965,VALID,89,VALID,0,
2014-12-07, 01:46:04,VALID,1009.68,VALID,0,INVALID,112.518,VALID,0.112112,VALID,23.965,VALID,89,VALID,0,
2014-12-07, 01:47:04,VALID,1009.69,VALID,0,INVALID,113.639,VALID,0.112112,VALID,23.9845,VALID,89,VALID,0,
2014-12-07, 01:48:04,VALID,1009.65,VALID,0,INVALID,114.127,VALID,0.112112,VALID,23.965,VALID,89,VALID,0,
2014-12-07, 01:49:04,VALID,1009.69,VALID,0,INVALID,113.814,VALID,0.112112,VALID,23.965,VALID,89,VALID,0,
2014-12-07, 01:50:04,VALID,1009.66,VALID,0,INVALID,113.387,VALID,0.112112,VALID,23.9455,VALID,89,VALID,0,
2014-12-07, 01:51:04,VALID,1009.64,VALID,0,INVALID,113.258,VALID,0.112112,VALID,23.9455,VALID,89,VALID,0,
2014-12-07, 01:52:04,VALID,1009.64,VALID,0,INVALID,114.859,VALID,0.112112,VALID,23.926,VALID,89,VALID,0,
2014-12-07, 01:53:04,VALID,1009.66,VALID,0,INVALID,116.27,VALID,0.112112,VALID,23.9455,VALID,89,VALID,0,
2014-12-07, 01:54:04,VALID,1009.62,VALID,0,INVALID,116.918,VALID,0.112112,VALID,23.9455,VALID,89,VALID,0,
2014-12-07, 01:55:04,VALID,1009.65,VALID,0,INVALID,117.398,VALID,0.112112,VALID,23.9668,VALID,89,VALID,0,
2014-12-07, 01:56:04,VALID,1009.67,VALID,0,INVALID,117.711,VALID,0.112112,VALID,23.9455,VALID,89,VALID,0,
2014-12-07, 01:57:04,VALID,1009.63,VALID,0,INVALID,117.94,VALID,0.112112,VALID,23.926,VALID,89,VALID,0,
2014-12-07, 01:58:04,VALID,1009.63,VALID,0,INVALID,118.192,VALID,0.112112,VALID,23.926,VALID,89,VALID,0,
2014-12-07, 01:59:04,VALID,1009.64,VALID,0,INVALID,118.306,VALID,0.112112,VALID,23.926,VALID,89,VALID,0,
2014-12-07, 02:00:04,VALID,1009.64,VALID,0,INVALID,118.23,VALID,0,VALID,23.9278,VALID,89,VALID,0,
2014-12-07, 02:01:04,VALID,1009.67,VALID,0,INVALID,118.466,VALID,0,VALID,23.9297,VALID,89,VALID,0,
2014-12-07, 02:02:04,VALID,1009.67,VALID,0,INVALID,118.603,VALID,0,VALID,23.9084,VALID,89,VALID,0,
2014-12-07, 02:03:04,VALID,1009.69,VALID,0,INVALID,118.969,VALID,0,VALID,23.9278,VALID,89,VALID,0,
2014-12-07, 02:04:04,VALID,1009.7,VALID,0,INVALID,119.168,VALID,0,VALID,23.9084,VALID,89,VALID,0,
2014-12-07, 02:05:04,VALID,1009.72,VALID,0,INVALID,119.191,VALID,0,VALID,23.9102,VALID,89,VALID,0,
2014-12-07, 02:06:04,VALID,1009.72,VALID,0,INVALID,119.053,VALID,0,VALID,23.8889,VALID,89,VALID,0,
2014-12-07, 02:07:04,VALID,1009.73,VALID,0,INVALID,119.152,VALID,0,VALID,23.9102,VALID,89,VALID,0,
2014-12-07, 02:08:04,VALID,1009.73,VALID,0,INVALID,119.267,VALID,0,VALID,23.8694,VALID,89,VALID,0,
2014-12-07, 02:09:04,VALID,1009.78,VALID,0,INVALID,119.313,VALID,0,VALID,23.8499,VALID,89,VALID,0,
2014-12-07, 02:10:04,VALID,1009.79,VALID,0,INVALID,119.778,VALID,0,VALID,23.8499,VALID,89,VALID,0,
2014-12-07, 02:11:04,VALID,1009.8,VALID,0,INVALID,120.411,VALID,0,VALID,23.8712,VALID,89,VALID,0,
2014-12-07, 02:12:04,VALID,1009.77,VALID,0,INVALID,120.937,VALID,0,VALID,23.8694,VALID,89,VALID,0,
2014-12-07, 02:13:04,VALID,1009.74,VALID,0,INVALID,121.097,VALID,0,VALID,23.8694,VALID,89,VALID,0,
2014-12-07, 02:14:04,VALID,1009.75,VALID,0,INVALID,120.967,VALID,0,VALID,23.8907,VALID,89,VALID,0,
2014-12-07, 02:15:04,VALID,1009.72,VALID,0,INVALID,120.716,VALID,0,VALID,23.8907,VALID,89,VALID,0,
2014-12-07, 02:16:04,VALID,1009.71,VALID,0,INVALID,120.479,VALID,0,VALID,23.8694,VALID,89,VALID,0,
2014-12-07, 02:17:04,VALID,1009.69,VALID,0,INVALID,120.296,VALID,0,VALID,23.8694,VALID,89,VALID,0,
2014-12-07, 02:18:04,VALID,1009.66,VALID,0,INVALID,119.93,VALID,0,VALID,23.8694,VALID,89,VALID,0,
2014-12-07, 02:19:04,VALID,1009.65,VALID,0,INVALID,119.511,VALID,0,VALID,23.8712,VALID,89,VALID,0,
2014-12-07, 02:20:04,VALID,1009.63,VALID,0,INVALID,119.389,VALID,0,VALID,23.8712,VALID,89,VALID,0,
2014-12-07, 02:21:04,VALID,1009.62,VALID,0,INVALID,119.29,VALID,0,VALID,23.8499,VALID,89,VALID,0,
2014-12-07, 02:22:04,VALID,1009.61,VALID,0,INVALID,118.695,VALID,0,VALID,23.8517,VALID,89,VALID,0,
2014-12-07, 02:23:04,VALID,1009.63,VALID,0,INVALID,118.542,VALID,0,VALID,23.8322,VALID,89,VALID,0,
2014-12-07, 02:24:04,VALID,1009.61,VALID,0,INVALID,118.748,VALID,0,VALID,23.8322,VALID,89,VALID,0,
2014-12-07, 02:25:04,VALID,1009.62,VALID,0,INVALID,119.221,VALID,0,VALID,23.8127,VALID,89,VALID,0,
2014-12-07, 02:26:04,VALID,1009.61,VALID,0,INVALID,119.564,VALID,0,VALID,23.8109,VALID,89,VALID,0,
2014-12-07, 02:27:04,VALID,1009.56,VALID,0,INVALID,119.435,VALID,0,VALID,23.8109,VALID,89,VALID,0,
2014-12-07, 02:28:04,VALID,1009.54,VALID,0,INVALID,119.191,VALID,0,VALID,23.7914,VALID,89,VALID,0,
2014-12-07, 02:29:04,VALID,1009.51,VALID,0,INVALID,119.305,VALID,0,VALID,23.772,VALID,89,VALID,0,
2014-12-07, 02:30:04,VALID,1009.43,VALID,0,INVALID,118.901,VALID,0,VALID,23.7738,VALID,89,VALID,0,
2014-12-07, 02:31:04,VALID,1009.41,VALID,0,INVALID,118.214,VALID,0,VALID,23.7135,VALID,89,VALID,0,
2014-12-07, 02:32:04,VALID,1009.38,VALID,0,INVALID,118.802,VALID,0,VALID,23.6958,VALID,89,VALID,0,
2014-12-07, 02:33:04,VALID,1009.35,VALID,0,INVALID,119.198,VALID,0,VALID,23.655,VALID,89,VALID,0,
2014-12-07, 02:34:04,VALID,1009.38,VALID,0,INVALID,119.473,VALID,0,VALID,23.6161,VALID,89,VALID,0,
2014-12-07, 02:35:04,VALID,1009.36,VALID,0,INVALID,120.029,VALID,0,VALID,23.5984,VALID,89,VALID,0,
2014-12-07, 02:36:04,VALID,1009.35,VALID,0,INVALID,120.548,VALID,0,VALID,23.5789,VALID,89,VALID,0,
2014-12-07, 02:37:04,VALID,1009.35,VALID,0,INVALID,121.219,VALID,0,VALID,23.5381,VALID,89,VALID,0,
2014-12-07, 02:38:04,VALID,1009.32,VALID,0,INVALID,122.416,VALID,0,VALID,23.5186,VALID,89,VALID,0,
2014-12-07, 02:39:04,VALID,1009.31,VALID,0,INVALID,123.064,VALID,0,VALID,23.5399,VALID,89,VALID,0,
2014-12-07, 02:40:04,VALID,1009.31,VALID,0,INVALID,123.53,VALID,0,VALID,23.5204,VALID,89,VALID,0,
2014-12-07, 02:41:04,VALID,1009.29,VALID,0,INVALID,123.766,VALID,0,VALID,23.4797,VALID,89,VALID,0,
2014-12-07, 02:42:04,VALID,1009.29,VALID,0,INVALID,123.957,VALID,0,VALID,23.462,VALID,89,VALID,0,
2014-12-07, 02:43:04,VALID,1009.3,VALID,0,INVALID,124.407,VALID,0,VALID,23.4407,VALID,89,VALID,0,
2014-12-07, 02:44:04,VALID,1009.28,VALID,0,INVALID,124.856,VALID,0,VALID,23.4407,VALID,89,VALID,0,
2014-12-07, 02:45:04,VALID,1009.31,VALID,0,INVALID,124.795,VALID,0.112112,VALID,23.4407,VALID,89,VALID,0,
2014-12-07, 02:46:04,VALID,1009.32,VALID,0,INVALID,124.704,VALID,0.112112,VALID,23.4,VALID,89,VALID,0,
2014-12-07, 02:47:04,VALID,1009.29,VALID,0,INVALID,124.574,VALID,0.112112,VALID,23.3805,VALID,89,VALID,0,
2014-12-07, 02:48:04,VALID,1009.29,VALID,0,INVALID,124.597,VALID,0,VALID,23.3823,VALID,89,VALID,0,
2014-12-07, 02:49:04,VALID,1009.29,VALID,0,INVALID,124.597,VALID,0.112112,VALID,23.3433,VALID,89,VALID,0,
2014-12-07, 02:50:04,VALID,1009.27,VALID,0,INVALID,124.75,VALID,0.112112,VALID,23.3026,VALID,89,VALID,0,
2014-12-07, 02:51:04,VALID,1009.26,VALID,0,INVALID,124.902,VALID,0,VALID,23.3043,VALID,89,VALID,0,
2014-12-07, 02:52:04,VALID,1009.24,VALID,0,INVALID,125.123,VALID,0,VALID,23.3061,VALID,89,VALID,0,
2014-12-07, 02:53:04,VALID,1009.23,VALID,0,INVALID,125.375,VALID,0,VALID,23.2654,VALID,89,VALID,0,
2014-12-07, 02:54:04,VALID,1009.24,VALID,0,INVALID,125.604,VALID,0,VALID,23.2654,VALID,89,VALID,0,
2014-12-07, 02:55:04,VALID,1009.22,VALID,0,INVALID,125.802,VALID,0,VALID,23.2459,VALID,89,VALID,0,
2014-12-07, 02:56:04,VALID,1009.23,VALID,0,INVALID,126.13,VALID,0,VALID,23.2459,VALID,89,VALID,0,
2014-12-07, 02:57:04,VALID,1009.19,VALID,0,INVALID,126.679,VALID,0,VALID,23.2459,VALID,89,VALID,0,
2014-12-07, 02:58:04,VALID,1009.19,VALID,0,INVALID,127.51,VALID,0,VALID,23.2671,VALID,89,VALID,0,
2014-12-07, 02:59:04,VALID,1009.18,VALID,0,INVALID,127.93,VALID,0,VALID,23.2459,VALID,89,VALID,0,
2014-12-07, 03:00:04,VALID,1009.16,VALID,0,INVALID,128.761,VALID,0,VALID,23.2264,VALID,89,VALID,0,
2014-12-07, 03:01:04,VALID,1009.16,VALID,0,INVALID,129.135,VALID,0,VALID,23.2282,VALID,89,VALID,0,
2014-12-07, 03:02:04,VALID,1009.17,VALID,0,INVALID,129.394,VALID,0,VALID,23.2087,VALID,89,VALID,0,
2014-12-07, 03:03:04,VALID,1009.13,VALID,0,INVALID,129.638,VALID,0,VALID,23.2087,VALID,89,VALID,0,
2014-12-07, 03:04:04,VALID,1009.16,VALID,0,INVALID,129.882,VALID,0,VALID,23.2069,VALID,89,VALID,0,
2014-12-07, 03:05:04,VALID,1009.12,VALID,0,INVALID,130.271,VALID,0,VALID,23.2069,VALID,89,VALID,0,
2014-12-07, 03:06:04,VALID,1009.12,VALID,0,INVALID,130.4,VALID,0,VALID,23.2069,VALID,89,VALID,0,
2014-12-07, 03:07:04,VALID,1009.1,VALID,0,INVALID,130.972,VALID,0,VALID,23.2069,VALID,89,VALID,0,
2014-12-07, 03:08:04,VALID,1009.07,VALID,0,INVALID,131.079,VALID,0,VALID,23.1874,VALID,89,VALID,0,
2014-12-07, 03:09:04,VALID,1009.08,VALID,0,INVALID,131.087,VALID,0,VALID,23.1874,VALID,89,VALID,0,
2014-12-07, 03:10:04,VALID,1009.04,VALID,0,INVALID,131.254,VALID,0,VALID,23.1892,VALID,89,VALID,0,
2014-12-07, 03:11:04,VALID,1009.03,VALID,0,INVALID,131.3,VALID,0,VALID,23.1679,VALID,89,VALID,0,
2014-12-07, 03:12:04,VALID,1009.01,VALID,0,INVALID,131.27,VALID,0,VALID,23.1679,VALID,89,VALID,0,
2014-12-07, 03:13:04,VALID,1008.98,VALID,0,INVALID,131.384,VALID,0,VALID,23.1485,VALID,89,VALID,0,
2014-12-07, 03:14:04,VALID,1008.96,VALID,0,INVALID,131.453,VALID,0,VALID,23.129,VALID,89,VALID,0,
2014-12-07, 03:15:04,VALID,1008.94,VALID,0,INVALID,131.491,VALID,0.112112,VALID,23.1485,VALID,89,VALID,0,
2014-12-07, 03:16:04,VALID,1008.94,VALID,0,INVALID,131.567,VALID,0.112112,VALID,23.0883,VALID,89,VALID,0,
2014-12-07, 03:17:04,VALID,1008.97,VALID,0,INVALID,131.521,VALID,0.112112,VALID,23.1095,VALID,89,VALID,0,
2014-12-07, 03:18:04,VALID,1008.94,VALID,0,INVALID,131.453,VALID,0.112112,VALID,23.1095,VALID,89,VALID,0,
2014-12-07, 03:19:04,VALID,1008.95,VALID,0,INVALID,131.43,VALID,0.112112,VALID,23.129,VALID,89,VALID,0,
2014-12-07, 03:20:04,VALID,1008.94,VALID,0,INVALID,131.613,VALID,0,VALID,23.09,VALID,89,VALID,0,
2014-12-07, 03:21:04,VALID,1008.93,VALID,0,INVALID,131.75,VALID,0.112112,VALID,23.0493,VALID,89,VALID,0,
2014-12-07, 03:22:04,VALID,1008.91,VALID,0,INVALID,131.826,VALID,0.112112,VALID,23.0298,VALID,89,VALID,0,
2014-12-07, 03:23:04,VALID,1008.92,VALID,0,INVALID,131.819,VALID,0.112112,VALID,23.0298,VALID,89,VALID,0,
2014-12-07, 03:24:04,VALID,1008.91,VALID,0,INVALID,131.926,VALID,0.112112,VALID,23.0316,VALID,89,VALID,0,
2014-12-07, 03:25:05,VALID,1008.89,VALID,0,INVALID,131.964,VALID,0.112112,VALID,23.0103,VALID,89,VALID,0,
2014-12-07, 03:26:04,VALID,1008.87,VALID,0,INVALID,131.971,VALID,0.112112,VALID,23.0298,VALID,89,VALID,0,
2014-12-07, 03:27:05,VALID,1008.88,VALID,0,INVALID,131.918,VALID,0.112112,VALID,23.0103,VALID,89,VALID,0,
2014-12-07, 03:28:05,VALID,1008.89,VALID,0,INVALID,131.941,VALID,0,VALID,23.0103,VALID,89,VALID,0,
2014-12-07, 03:29:05,VALID,1008.91,VALID,0,INVALID,131.964,VALID,0.112112,VALID,22.9909,VALID,89,VALID,0,
2014-12-07, 03:30:05,VALID,1008.92,VALID,0,INVALID,132.109,VALID,0,VALID,22.9731,VALID,89,VALID,0,
2014-12-07, 03:31:05,VALID,1008.93,VALID,0,INVALID,132.139,VALID,0,VALID,22.9926,VALID,89,VALID,0,
2014-12-07, 03:32:05,VALID,1008.94,VALID,0,INVALID,132.04,VALID,0,VALID,23.0121,VALID,89,VALID,0,
2014-12-07, 03:33:05,VALID,1008.94,VALID,0,INVALID,132.597,VALID,0,VALID,23.0316,VALID,89,VALID,0,
2014-12-07, 03:34:05,VALID,1008.94,VALID,0,INVALID,132.833,VALID,0,VALID,23.0511,VALID,89,VALID,0,
2014-12-07, 03:35:05,VALID,1008.97,VALID,0,INVALID,132.795,VALID,0,VALID,23.0705,VALID,89,VALID,0,
2014-12-07, 03:36:05,VALID,1008.97,VALID,0,INVALID,132.879,VALID,0,VALID,23.0705,VALID,89,VALID,0,
2014-12-07, 03:37:05,VALID,1008.97,VALID,0,INVALID,132.947,VALID,0,VALID,23.0511,VALID,89,VALID,0,
2014-12-07, 03:38:05,VALID,1009.01,VALID,0,INVALID,132.993,VALID,0,VALID,23.0723,VALID,89,VALID,0,
2014-12-07, 03:39:05,VALID,1009.01,VALID,0,INVALID,132.986,VALID,0,VALID,23.0511,VALID,89,VALID,0,
2014-12-07, 03:40:05,VALID,1009,VALID,0,INVALID,133.077,VALID,0,VALID,23.0316,VALID,89,VALID,0,
2014-12-07, 03:41:05,VALID,1008.98,VALID,0,INVALID,133.115,VALID,0,VALID,23.0511,VALID,89,VALID,0,
2014-12-07, 03:42:05,VALID,1009.02,VALID,0,INVALID,133.169,VALID,0,VALID,23.0121,VALID,89,VALID,0,
2014-12-07, 03:43:05,VALID,1009.02,VALID,0,INVALID,133.298,VALID,0,VALID,23.0121,VALID,89,VALID,0,
2014-12-07, 03:44:05,VALID,1009.03,VALID,0,INVALID,133.428,VALID,0,VALID,22.9926,VALID,89,VALID,0,
2014-12-07, 03:45:05,VALID,1009.06,VALID,0,INVALID,133.535,VALID,0,VALID,22.9731,VALID,89,VALID,0,
2014-12-07, 03:46:05,VALID,1009.06,VALID,0,INVALID,133.603,VALID,0,VALID,22.9731,VALID,89,VALID,0,
2014-12-07, 03:47:05,VALID,1009.06,VALID,0,INVALID,134.03,VALID,0,VALID,23.0138,VALID,89,VALID,0,
2014-12-07, 03:48:05,VALID,1009.06,VALID,0,INVALID,134.023,VALID,0,VALID,22.9926,VALID,89,VALID,0,
2014-12-07, 03:49:05,VALID,1009.06,VALID,0,INVALID,133.893,VALID,0,VALID,23.0316,VALID,89,VALID,0,
2014-12-07, 03:50:05,VALID,1009.06,VALID,0,INVALID,133.87,VALID,0,VALID,23.0316,VALID,89,VALID,0,
2014-12-07, 03:51:05,VALID,1009.06,VALID,0,INVALID,133.954,VALID,0,VALID,23.0121,VALID,89,VALID,0,
2014-12-07, 03:52:05,VALID,1009.05,VALID,0,INVALID,133.992,VALID,0,VALID,23.0121,VALID,89,VALID,0,
2014-12-07, 03:53:05,VALID,1009.05,VALID,0,INVALID,134.038,VALID,0,VALID,23.0138,VALID,89,VALID,0,